TimeEDT,TemperatureF,Dew PointF,Humidity,Sea Level PressureIn,VisibilityMPH,Wind Direction,Wind SpeedMPH,Gust SpeedMPH,PrecipitationIn,Events,Conditions,WindDirDegrees,DateUTC
12:54 AM,46.0,37.9,73,30.18,10.0,SW,3.5,-,N/A,,Clear,220,2012-10-12 04:54:00
1:54 AM,45.0,39.0,80,30.18,10.0,Calm,Calm,-,N/A,,Clear,0,2012-10-12 05:54:00
2:54 AM,46.0,39.9,79,30.17,10.0,Calm,Calm,-,N/A,,Clear,0,2012-10-12 06:54:00
3:54 AM,45.0,39.9,82,30.14,10.0,SSW,3.5,-,N/A,,Clear,200,2012-10-12 07:54:00
4:54 AM,46.0,41.0,83,30.14,10.0,SW,3.5,-,N/A,,Clear,220,2012-10-12 08:54:00
5:54 AM,48.0,43.0,83,30.12,10.0,SSW,6.9,-,N/A,,Clear,210,2012-10-12 09:54:00
6:54 AM,46.0,42.1,86,30.14,10.0,West,3.5,-,N/A,,Clear,260,2012-10-12 10:54:00
7:54 AM,48.0,44.1,86,30.14,9.0,West,4.6,-,N/A,,Clear,260,2012-10-12 11:54:00
8:54 AM,52.0,45.0,77,30.15,10.0,West,5.8,-,N/A,,Clear,260,2012-10-12 12:54:00
9:54 AM,57.0,41.0,55,30.15,10.0,West,10.4,-,N/A,,Clear,280,2012-10-12 13:54:00
10:54 AM,61.0,37.9,42,30.16,10.0,WNW,16.1,-,N/A,,Clear,290,2012-10-12 14:54:00
11:54 AM,62.1,39.0,43,30.16,10.0,WNW,13.8,-,N/A,,Clear,290,2012-10-12 15:54:00
12:54 PM,63.0,39.0,41,30.15,10.0,NW,16.1,24.2,N/A,,Mostly Cloudy,310,2012-10-12 16:54:00
1:54 PM,64.0,39.0,40,30.14,10.0,NNW,21.9,27.6,N/A,,Clear,340,2012-10-12 17:54:00
2:54 PM,61.0,39.0,44,30.16,10.0,NNW,15.0,-,N/A,,Overcast,330,2012-10-12 18:54:00
3:54 PM,59.0,37.9,46,30.18,10.0,North,16.1,24.2,N/A,,Mostly Cloudy,350,2012-10-12 19:54:00
4:54 PM,55.9,37.9,51,30.22,10.0,NNW,15.0,-,N/A,,Scattered Clouds,340,2012-10-12 20:54:00
5:54 PM,53.1,37.0,55,30.26,10.0,NNW,5.8,-,N/A,,Scattered Clouds,340,2012-10-12 21:54:00
6:54 PM,51.1,36.0,56,30.30,10.0,North,8.1,-,N/A,,Clear,350,2012-10-12 22:54:00
7:54 PM,48.0,30.9,52,30.32,10.0,North,5.8,-,N/A,,Clear,350,2012-10-12 23:54:00
8:54 PM,44.1,30.9,60,30.36,10.0,North,5.8,-,N/A,,Clear,360,2012-10-13 00:54:00
9:54 PM,41.0,30.9,67,30.38,10.0,North,6.9,-,N/A,,Clear,360,2012-10-13 01:54:00
10:54 PM,42.1,28.0,58,30.40,10.0,North,8.1,-,N/A,,Clear,350,2012-10-13 02:54:00
11:54 PM,41.0,27.0,57,30.43,10.0,North,8.1,-,N/A,,Clear,360,2012-10-13 03:54:00